H1 CPF 2 NER 2024 2 13 9 044 01 glonass142 H2 2001801 9142 45358 2024 2 13 0 0 0 2024 2 16 23 45 0 900 1 1 0 0 0 1 H9 10 0 60353 0.00000 0 23916178.691 8843289.374 -500410.623 10 0 60353 900.00000 0 23714699.955 8614127.185 -3704383.449 10 0 60353 1800.00000 0 23118306.134 8306763.123 -6836328.722 10 0 60353 2700.00000 0 22129356.684 7977573.678 -9835319.435 10 0 60353 3600.00000 0 20763543.019 7682088.254 -12642991.102 10 0 60353 4500.00000 0 19049374.582 7472427.640 -15204685.243 10 0 60353 5400.00000 0 17027141.205 7394895.278 -17470521.019 10 0 60353 6300.00000 0 14747394.499 7487824.392 -19396373.435 10 0 60353 7200.00000 0 12269011.353 7779773.229 -20944738.418 10 0 60353 8100.00000 0 9656920.333 8288145.776 -22085467.571 10 0 60353 9000.00000 0 6979585.864 9018297.251 -22796358.090 10 0 60353 9900.00000 0 4306355.263 9963162.956 -23063586.283 10 0 60353 10800.00000 0 1704779.283 11103426.915 -22881976.388 10 0 60353 11700.00000 0 -761982.265 12408223.740 -22255099.559 10 0 60353 12600.00000 0 -3037561.899 13836344.603 -21195201.347 10 0 60353 13500.00000 0 -5074493.300 15337896.836 -19722959.252 10 0 60353 14400.00000 0 -6835940.448 16856347.465 -17867075.281 10 0 60353 15300.00000 0 -8296975.927 18330864.709 -15663711.646 10 0 60353 16200.00000 0 -9445356.385 19698858.844 -13155780.850 10 0 60353 17100.00000 0 -10281764.310 20898615.361 -10392104.216 10 0 60353 18000.00000 0 -10819507.815 21871909.407 -7426455.671 10 0 60353 18900.00000 0 -11083692.960 22566491.260 -4316509.826 10 0 60353 19800.00000 0 -11109905.383 22938338.136 -1122715.324 10 0 60353 20700.00000 0 -10942458.639 22953577.469 2092884.009 10 0 60353 21600.00000 0 -10632284.751 22590000.872 5267856.785 10 0 60353 22500.00000 0 -10234557.415 21838105.303 8340596.542 10 0 60353 23400.00000 0 -9806149.208 20701617.981 11251515.260 10 0 60353 24300.00000 0 -9403030.863 19197483.371 13944194.723 10 0 60353 25200.00000 0 -9077722.595 17355313.055 16366473.679 10 0 60353 26100.00000 0 -8876904.981 15216321.692 18471450.253 10 0 60353 27000.00000 0 -8839289.736 12831793.472 20218381.017 10 0 60353 27900.00000 0 -8993839.566 10261142.683 21573460.333 10 0 60353 28800.00000 0 -9358411.541 7569648.516 22510465.952 10 0 60353 29700.00000 0 -9938880.609 4825957.354 23011259.441 10 0 60353 30600.00000 0 -10728779.979 2099455.000 23066132.668 10 0 60353 31500.00000 0 -11709473.705 -542383.540 22673994.243 10 0 60353 32400.00000 0 -12850854.845 -3036558.337 21842392.600 10 0 60353 33300.00000 0 -14112540.905 -5326918.102 20587375.119 10 0 60353 34200.00000 0 -15445517.748 -7366245.932 18933185.517 10 0 60353 35100.00000 0 -16794164.421 -9117971.848 16911804.513 10 0 60353 36000.00000 0 -18098575.432 -10557441.905 14562341.520 10 0 60353 36900.00000 0 -19297084.258 -11672691.625 11930287.975 10 0 60353 37800.00000 0 -20328883.054 -12464691.986 9066645.549 10 0 60353 38700.00000 0 -21136629.021 -12947057.871 6026945.095 10 0 60353 39600.00000 0 -21668927.787 -13145231.318 2870174.577 10 0 60353 40500.00000 0 -21882588.904 -13095173.967 -342363.657 10 0 60353 41400.00000 0 -21744557.338 -12841623.830 -3548244.201 10 0 60353 42300.00000 0 -21233438.446 -12435990.189 -6685135.083 10 0 60353 43200.00000 0 -20340550.829 -11933975.969 -9692015.166 10 0 60353 44100.00000 0 -19070460.935 -11393028.613 -12510368.107 10 0 60353 45000.00000 0 -17440975.383 -10869728.052 -15085328.740 10 0 60353 45900.00000 0 -15482589.919 -10417223.167 -17366758.711 10 0 60353 46800.00000 0 -13237416.920 -10082826.151 -19310229.709 10 0 60353 47700.00000 0 -10757635.491 -9905867.453 -20877894.520 10 0 60353 48600.00000 0 -8103528.399 -9915902.874 -22039228.526 10 0 60353 49500.00000 0 -5341187.448 -10131349.329 -22771627.052 10 0 60353 50400.00000 0 -2539982.898 -10558607.534 -23060846.817 10 0 60353 51300.00000 0 230097.708 -11191709.095 -22901283.023 10 0 60353 52200.00000 0 2901130.558 -12012503.229 -22296076.809 10 0 60353 53100.00000 0 5409844.956 -12991375.430 -21257051.191 10 0 60353 54000.00000 0 7700013.574 -14088467.820 -19804476.912 10 0 60353 54900.00000 0 9724544.613 -15255349.708 -17966672.965 10 0 60353 55800.00000 0 11447189.402 -16437067.786 -15779449.792 10 0 60353 56700.00000 0 12843795.326 -17574489.279 -13285406.215 10 0 60353 57600.00000 0 13903053.087 -18606839.004 -10533094.085 10 0 60353 58500.00000 0 14626708.635 -19474323.002 -7576067.295 10 0 60353 59400.00000 0 15029232.697 -20120727.800 -4471834.115 10 0 60353 60300.00000 0 15136963.697 -20495885.427 -1280733.736 10 0 60353 61200.00000 0 14986761.972 -20557900.029 1935240.515 10 0 60353 62100.00000 0 14624233.770 -20275042.164 5113647.915 10 0 60353 63000.00000 0 14101601.381 -19627230.987 8192813.141 10 0 60353 63900.00000 0 13475310.498 -18607042.052 11113021.276 10 0 60353 64800.00000 0 12803476.536 -17220198.505 13817671.822 10 0 60353 65700.00000 0 12143278.058 -15485525.174 16254369.565 10 0 60353 66600.00000 0 11548407.207 -13434367.466 18375931.701 10 0 60353 67500.00000 0 11066684.236 -11109499.256 20141292.466 10 0 60353 68400.00000 0 10737935.966 -8563564.867 21516288.802 10 0 60353 69300.00000 0 10592226.695 -5857119.427 22474312.875 10 0 60353 70200.00000 0 10648515.208 -3056348.096 22996819.904 10 0 60353 71100.00000 0 10913793.726 -230557.608 23073682.377 10 0 60353 72000.00000 0 11382744.675 2550457.198 22703384.429 10 0 60353 72900.00000 0 12037929.739 5219064.282 21893052.924 10 0 60353 73800.00000 0 12850503.724 7712354.425 20658324.528 10 0 60353 74700.00000 0 13781424.075 9974505.664 19023050.853 10 0 60353 75600.00000 0 14783106.345 11958855.317 17018846.554 10 0 60353 76500.00000 0 15801457.300 13629594.553 14684488.021 10 0 60353 77400.00000 0 16778201.311 14963015.646 12065173.131 10 0 60353 78300.00000 0 17653403.250 15948260.463 9211655.207 10 0 60353 79200.00000 0 18368082.319 16587539.091 6179266.888 10 0 60353 80100.00000 0 18866806.911 16895809.497 3026852.091 10 0 60353 81000.00000 0 19100160.845 16899931.626 -184373.707 10 0 60353 81900.00000 0 19026976.177 16637331.497 -3392012.890 10 0 60353 82800.00000 0 18616237.338 16154231.695 -6533701.391 10 0 60353 83700.00000 0 17848574.760 15503523.094 -9548326.552 10 0 60353 84600.00000 0 16717283.355 14742368.097 -12377222.723 10 0 60353 85500.00000 0 15228821.240 13929637.189 -14965320.450 10 0 60354 0.00000 0 13402766.098 13123287.939 -17262225.894 10 0 60354 900.00000 0 11271228.524 12377797.557 -19223209.869 10 0 60354 1800.00000 0 8877748.162 11741759.388 -20810083.611 10 0 60354 2700.00000 0 6275714.632 11255744.113 -21991947.898 10 0 60354 3600.00000 0 3526380.879 10950517.670 -22745797.584 10 0 60354 4500.00000 0 696550.524 10845691.076 -23056970.965 10 0 60354 5400.00000 0 -2143964.508 10948859.452 -22919435.094 10 0 60354 6300.00000 0 -4925010.384 11255266.602 -22335901.647 10 0 60354 7200.00000 0 -7578770.888 11748009.210 -21317771.259 10 0 60354 8100.00000 0 -10042348.793 12398771.776 -19884907.645 10 0 60354 9000.00000 0 -12260141.993 13169060.960 -18065246.081 10 0 60354 9900.00000 0 -14185915.914 14011886.837 -15894244.107 10 0 60354 10800.00000 0 -15784486.650 14873819.592 -13414185.370 10 0 60354 11700.00000 0 -17032945.598 15697334.382 -10673350.434 10 0 60354 12600.00000 0 -17921375.721 16423344.779 -7725071.093 10 0 60354 13500.00000 0 -18453031.006 16993817.345 -4626687.013 10 0 60354 14400.00000 0 -18643973.309 17354356.458 -1438425.516 10 0 60354 15300.00000 0 -18522183.613 17456649.866 1777773.122 10 0 60354 16200.00000 0 -18126186.856 17260671.489 4959461.492 10 0 60354 17100.00000 0 -17503249.804 16736548.377 8044898.140 10 0 60354 18000.00000 0 -16707229.236 15866013.082 10974244.041 10 0 60354 18900.00000 0 -15796162.107 14643380.310 13690719.196 10 0 60354 19800.00000 0 -14829699.804 13076006.769 16141697.179 10 0 60354 20700.00000 0 -13866494.708 11184214.842 18279716.884 10 0 60354 21600.00000 0 -12961648.820 9000683.037 20063392.672 10 0 60354 22500.00000 0 -12164331.133 6569328.191 21458206.290 10 0 60354 23400.00000 0 -11515663.062 3943725.330 22437166.269 10 0 60354 24300.00000 0 -11046959.782 1185129.946 22981323.100 10 0 60354 25200.00000 0 -10778400.345 -1639816.416 23080131.164 10 0 60354 26100.00000 0 -10718181.646 -4461603.468 22731651.019 10 0 60354 27000.00000 0 -10862191.255 -7210489.607 21942588.471 10 0 60354 27900.00000 0 -11194212.733 -9819151.741 20728169.570 10 0 60354 28800.00000 0 -11686655.073 -12225239.144 19111853.505 10 0 60354 29700.00000 0 -12301776.241 -14373726.753 17124888.135 10 0 60354 30600.00000 0 -12993350.210 -16218971.192 14805715.684 10 0 60354 31500.00000 0 -13708708.319 -17726384.817 12199238.938 10 0 60354 32400.00000 0 -14391069.921 -18873658.504 9355960.978 10 0 60354 33300.00000 0 -14982064.735 -19651482.232 6331014.016 10 0 60354 34200.00000 0 -15424340.964 -20063733.393 3183095.415 10 0 60354 35100.00000 0 -15664148.906 -20127124.645 -26668.986 10 0 60354 36000.00000 0 -15653790.434 -19870325.971 -3235912.334 10 0 60354 36900.00000 0 -15353829.967 -19332597.800 -6382241.674 10 0 60354 37800.00000 0 -14734972.162 -18561992.758 -9404456.180 10 0 60354 38700.00000 0 -13779525.497 -17613202.086 -12243744.334 10 0 60354 39600.00000 0 -12482388.109 -16545137.925 -14844835.862 10 0 60354 40500.00000 0 -10851512.599 -15418354.044 -17157085.196 10 0 60354 41400.00000 0 -8907828.456 -14292414.514 -19135464.621 10 0 60354 42300.00000 0 -6684623.816 -13223322.008 -20741447.087 10 0 60354 43200.00000 0 -4226411.164 -12261114.814 -21943761.147 10 0 60354 44100.00000 0 -1587323.365 -11447734.351 -22719003.022 10 0 60354 45000.00000 0 1170893.679 -10815253.366 -23052093.839 10 0 60354 45900.00000 0 3981208.517 -10384539.567 -22936573.171 10 0 60354 46800.00000 0 6773855.160 -10164410.815 -22374723.337 10 0 60354 47700.00000 0 9479001.511 -10151317.157 -21377522.198 10 0 60354 48600.00000 0 12029424.345 -10329562.537 -19964425.581 10 0 60354 49500.00000 0 14363079.677 -10672056.199 -18162983.769 10 0 60354 50400.00000 0 16425461.750 -11141561.305 -16008299.711 10 0 60354 51300.00000 0 18171652.845 -11692387.290 -13542339.795 10 0 60354 52200.00000 0 19567979.110 -12272453.648 -10813110.815 10 0 60354 53100.00000 0 20593204.176 -12825637.170 -7873719.601 10 0 60354 54000.00000 0 21239211.881 -13294302.700 -4781334.012 10 0 60354 54900.00000 0 21511150.916 -13621909.731 -1596066.034 10 0 60354 55800.00000 0 21427036.916 -13755584.133 1620200.730 10 0 60354 56700.00000 0 21016830.321 -13648545.871 4805015.848 10 0 60354 57600.00000 0 20321030.374 -13262289.887 7896575.299 10 0 60354 58500.00000 0 19388845.753 -12568427.907 10834919.287 10 0 60354 59400.00000 0 18276019.957 -11550113.440 13563091.330 10 0 60354 60300.00000 0 17042403.626 -10202989.875 16028236.397 10 0 60354 61200.00000 0 15749376.252 -8535621.702 18182617.244 10 0 60354 62100.00000 0 14457225.490 -6569390.497 19984530.053 10 0 60354 63000.00000 0 13222593.629 -4337859.516 21399102.606 10 0 60354 63900.00000 0 12096097.531 -1885632.729 22398960.565 10 0 60354 64800.00000 0 11120220.781 733245.184 22964750.044 10 0 60354 65700.00000 0 10327565.237 3457282.573 23085507.260 10 0 60354 66600.00000 0 9739534.143 6219846.921 22758868.771 10 0 60354 67500.00000 0 9365501.082 8951689.230 21991118.566 10 0 60354 68400.00000 0 9202498.941 11583583.628 20797071.034 10 0 60354 69300.00000 0 9235441.680 14048974.264 19199791.644 10 0 60354 70200.00000 0 9437869.667 16286521.037 17230159.939 10 0 60354 71100.00000 0 9773187.633 18242439.566 14926282.263 10 0 60354 72000.00000 0 10196343.772 19872538.850 12332764.422 10 0 60354 72900.00000 0 10655879.928 21143872.153 9499857.171 10 0 60354 73800.00000 0 11096267.079 22035932.510 6482490.037 10 0 60354 74700.00000 0 11460427.924 22541342.602 3339211.417 10 0 60354 75600.00000 0 11692339.970 22666009.730 131054.951 10 0 60354 76500.00000 0 11739608.883 22428739.193 -3079645.922 10 0 60354 77400.00000 0 11555902.408 21860321.790 -6230472.005 10 0 60354 78300.00000 0 11103140.856 21002133.758 -9260136.910 10 0 60354 79200.00000 0 10353350.103 19904307.971 -12109685.740 10 0 60354 80100.00000 0 9290097.051 18623553.580 -14723649.712 10 0 60354 81000.00000 0 7909445.179 17220716.287 -17051133.446 10 0 60354 81900.00000 0 6220388.045 15758182.536 -19046812.986 10 0 60354 82800.00000 0 4244740.784 14297237.495 -20671824.445 10 0 60354 83700.00000 0 2016492.608 12895488.605 -21894525.577 10 0 60354 84600.00000 0 -419353.897 11604463.526 -22691115.174 10 0 60354 85500.00000 0 -3008409.099 10467483.811 -23046098.125 10 0 60355 0.00000 0 -5688920.856 9517903.811 -22952587.184 10 0 60355 900.00000 0 -8394114.764 8777788.138 -22412435.565 10 0 60355 1800.00000 0 -11054749.245 8257084.068 -21436198.198 10 0 60355 2700.00000 0 -13601783.988 7953321.231 -20042922.451 10 0 60355 3600.00000 0 -15969047.185 7851851.657 -18259772.595 10 0 60355 4500.00000 0 -18095791.928 7926618.429 -16121495.594 10 0 60355 5400.00000 0 -19929035.265 8141419.509 -13669738.836 10 0 60355 6300.00000 0 -21425582.708 8451612.235 -10952233.366 10 0 60355 7200.00000 0 -22553654.209 8806185.373 -8021858.886 10 0 60355 8100.00000 0 -23294044.496 9150110.113 -4935609.171 10 0 60355 9000.00000 0 -23640770.233 9426869.644 -1753478.500 10 0 60355 9900.00000 0 -23601178.147 9581059.546 1462708.634 10 0 60355 10800.00000 0 -23195510.976 9560948.375 4650501.278 10 0 60355 11700.00000 0 -22455950.882 9320889.725 7748035.408 10 0 60355 12600.00000 0 -21425181.853 8823483.570 10695233.064 10 0 60355 13500.00000 0 -20154532.634 8041395.458 13434963.902 10 0 60355 14400.00000 0 -18701779.034 6958756.772 15914146.849 10 0 60355 15300.00000 0 -17128698.340 5572086.980 18084770.966 10 0 60355 16200.00000 0 -15498478.520 3890698.905 19904816.496 10 0 60355 17100.00000 0 -13873090.384 1936569.592 21339059.211 10 0 60355 18000.00000 0 -12310732.074 -256318.480 22359743.543 10 0 60355 18900.00000 0 -10863451.747 -2643139.279 22947112.484 10 0 60355 19800.00000 0 -9575046.649 -5169841.017 23089784.964 10 0 60355 20700.00000 0 -8479325.140 -7775153.981 22784974.041 10 0 60355 21600.00000 0 -7598803.129 -10392906.554 22038542.026 10 0 60355 22500.00000 0 -6943888.409 -12954554.960 20864891.445 10 0 60355 23400.00000 0 -6512586.301 -15391823.260 19286693.509 10 0 60355 24300.00000 0 -6290738.546 -17639345.441 17334458.605 10 0 60355 25200.00000 0 -6252785.303 -19637200.976 15045956.061 10 0 60355 26100.00000 0 -6363018.440 -21333239.181 12465493.287 10 0 60355 27000.00000 0 -6577273.716 -22685096.001 9643067.066 10 0 60355 27900.00000 0 -6844990.963 -23661819.234 6633402.367 10 0 60355 28800.00000 0 -7111555.615 -24245033.971 3494896.517 10 0 60355 29700.00000 0 -7320822.811 -24429599.055 288488.702 10 0 60355 30600.00000 0 -7417717.045 -24223726.340 -2923523.500 10 0 60355 31500.00000 0 -7350796.785 -23648557.166 -6078697.303 10 0 60355 32400.00000 0 -7074674.691 -22737213.470 -9115663.568 10 0 60355 33300.00000 0 -6552189.625 -21533362.921 -11975326.976 10 0 60355 34200.00000 0 -5756237.102 -20089358.395 -14602023.297 10 0 60355 35100.00000 0 -4671179.112 -18464030.117 -16944610.402 10 0 60355 36000.00000 0 -3293771.959 -16720223.594 -18957471.051 10 0 60355 36900.00000 0 -1633571.292 -14922187.281 -20601407.260 10 0 60355 37800.00000 0 287204.393 -13132920.193 -21844408.401 10 0 60355 38700.00000 0 2434347.508 -11411591.248 -22662277.832 10 0 60355 39600.00000 0 4762845.385 -9811138.912 -23039105.733 10 0 60355 40500.00000 0 7218525.920 -8376151.897 -22967579.015 10 0 60355 41400.00000 0 9740096.803 -7141119.592 -22449122.376 10 0 60355 42300.00000 0 12261493.618 -6129125.113 -21493867.939 10 0 60355 43200.00000 0 14714439.095 -5351035.014 -20120454.274 10 0 60355 44100.00000 0 17031106.923 -4805218.645 -18355658.887 10 0 60355 45000.00000 0 19146779.009 -4477807.665 -16233871.563 10 0 60355 45900.00000 0 21002385.391 -4343483.424 -13796419.064 10 0 60355 46800.00000 0 22546820.905 -4366757.529 -11090754.587 10 0 60355 47700.00000 0 23738942.060 -4503690.148 -8169528.163 10 0 60355 48600.00000 0 24549161.098 -4703972.088 -5089556.511 10 0 60355 49500.00000 0 24960571.202 -4913281.406 -1910712.895 10 0 60355 50400.00000 0 24969556.602 -5075813.812 1305240.855 10 0 60355 51300.00000 0 24585863.078 -5136878.965 4495856.935 10 0 60355 52200.00000 0 23832127.069 -5045452.208 7599214.964 10 0 60355 53100.00000 0 22742884.327 -4756573.391 10555122.313 10 0 60355 54000.00000 0 21363100.771 -4233491.236 13306278.009 10 0 60355 54900.00000 0 19746288.016 -3449462.568 15799377.835 10 0 60355 55800.00000 0 17952283.111 -2389130.534 17986139.661 10 0 60355 56700.00000 0 16044785.659 -1049423.678 19824229.866 10 0 60355 57600.00000 0 14088755.110 560062.186 21278073.867 10 0 60355 58500.00000 0 12147776.422 2417215.788 22319536.064 10 0 60355 59400.00000 0 10281503.155 4488090.365 22928457.099 10 0 60355 60300.00000 0 8543283.439 6728084.455 23093038.950 10 0 60355 61200.00000 0 6978066.570 9083575.643 22810071.067 10 0 60355 62100.00000 0 5620676.131 11493940.774 22084993.558 10 0 60355 63000.00000 0 4494520.450 13893880.301 20931796.154 10 0 60355 63900.00000 0 3610793.178 16215951.692 19372754.518 10 0 60355 64800.00000 0 2968196.608 18393208.098 17438008.262 10 0 60355 65700.00000 0 2553198.834 20361833.789 15164987.803 10 0 60355 66600.00000 0 2340813.752 22063667.411 12597700.021 10 0 60355 67500.00000 0 2295871.132 23448508.522 9785885.375 10 0 60355 68400.00000 0 2374723.484 24476111.220 6784061.755 10 0 60355 69300.00000 0 2527317.895 25117781.163 3650472.769 10 0 60355 70200.00000 0 2699545.423 25357508.620 445960.359 10 0 60355 71100.00000 0 2835768.546 25192589.172 -2767216.603 10 0 60355 72000.00000 0 2881419.298 24633705.260 -5926594.565 10 0 60355 72900.00000 0 2785557.327 23704464.303 -8970724.401 10 0 60355 73800.00000 0 2503278.529 22440412.141 -11840372.993 10 0 60355 74700.00000 0 1997870.989 20887562.791 -14479683.065 10 0 60355 75600.00000 0 1242625.418 19100505.986 -16837267.913 10 0 60355 76500.00000 0 222221.969 17140172.043 -18867218.942 10 0 60355 77400.00000 0 -1066366.809 15071348.055 -20530005.735 10 0 60355 78300.00000 0 -2613496.568 12960049.922 -21793250.684 10 0 60355 79200.00000 0 -4397012.758 10870860.679 -22632362.842 10 0 60355 80100.00000 0 -6382947.762 8864346.892 -23031018.508 10 0 60355 81000.00000 0 -8526725.372 6994661.369 -22981479.260 10 0 60355 81900.00000 0 -10774823.011 5307432.348 -22484741.351 10 0 60355 82800.00000 0 -13066822.691 3838027.104 -21550513.742 10 0 60355 83700.00000 0 -15337765.321 2610261.884 -20197025.406 10 0 60355 84600.00000 0 -17520710.158 1635611.175 -18450665.833 10 0 60355 85500.00000 0 -19549392.447 912948.139 -16345465.986 10 0 60356 0.00000 0 -21360868.033 428825.613 -13922430.247 10 0 60356 900.00000 0 -22898035.242 158283.966 -11228731.304 10 0 60356 1800.00000 0 -24111926.227 66150.682 -8316787.318 10 0 60356 2700.00000 0 -24963675.223 108774.334 -5243235.451 10 0 60356 3600.00000 0 -25426079.167 236118.889 -2067825.380 10 0 60356 4500.00000 0 -25484686.777 394128.149 1147746.351 10 0 60356 5400.00000 0 -25138371.011 527259.303 4341037.736 10 0 60356 6300.00000 0 -24399361.712 581077.518 7450074.719 10 0 60356 7200.00000 0 -23292738.022 504801.279 10414552.685 10 0 60356 8100.00000 0 -21855402.725 253690.524 13177002.669 10 0 60356 9000.00000 0 -20134582.281 -208823.434 15683899.840 10 0 60356 9900.00000 0 -18185915.847 -909356.078 17886693.207 10 0 60356 10800.00000 0 -16071213.486 -1863211.002 19742737.349 10 0 60356 11700.00000 0 -13855977.019 -3073501.623 21216109.029 10 0 60356 12600.00000 0 -11606786.495 -4530790.407 22278293.912 10 0 60356 13500.00000 0 -9388660.352 -6213261.286 22908731.144 10 0 60356 14400.00000 0 -7262498.037 -8087418.881 23095206.166 10 0 60356 15300.00000 0 -5282710.235 -10109286.461 22834084.835 10 0 60356 16200.00000 0 -3495133.889 -12226054.053 22130384.691 10 0 60356 17100.00000 0 -1935317.400 -14378109.596 20997681.990 10 0 60356 18000.00000 0 -627246.221 -16501370.091 19457855.887 10 0 60356 18900.00000 0 417439.084 -18529817.229 17540674.010 10 0 60356 19800.00000 0 1199700.397 -20398133.109 15283226.430 10 0 60356 20700.00000 0 1732824.995 -22044327.199 12729217.862 10 0 60356 21600.00000 0 2041625.751 -23412245.510 9928130.642 10 0 60356 22500.00000 0 2161152.280 -24453857.253 6934273.613 10 0 60356 23400.00000 0 2134967.321 -25131223.221 3805734.569 10 0 60356 24300.00000 0 2013061.036 -25418062.638 603256.014 10 0 60356 25200.00000 0 1849491.514 -25300851.878 -2610944.179 10 0 60356 26100.00000 0 1699851.617 -24779407.975 -5774384.082 10 0 60356 27000.00000 0 1618669.982 -23866931.263 -8825537.050 10 0 60356 27900.00000 0 1656857.099 -22589504.381 -11705034.699 10 0 60356 28800.00000 0 1859305.725 -20985067.775 -14356829.296 10 0 60356 29700.00000 0 2262748.534 -19101914.171 -16729292.129 10 0 60356 30600.00000 0 2893965.087 -16996764.798 -18776225.722 10 0 60356 31500.00000 0 3768415.377 -14732507.996 -20457769.516 10 0 60356 32400.00000 0 4889359.131 -12375694.989 -21741180.945 10 0 60356 33300.00000 0 6247499.388 -9993897.843 -22601476.427 10 0 60356 34200.00000 0 7821166.585 -7653040.281 -23021919.657 10 0 60356 35100.00000 0 9577036.510 -5414813.033 -22994347.748 10 0 60356 36000.00000 0 11471352.810 -3334281.559 -22519328.966 10 0 60356 36900.00000 0 13451603.402 -1457785.787 -21606149.178 10 0 60356 37800.00000 0 15458580.943 178781.031 -20272627.454 10 0 60356 38700.00000 0 17428741.252 1551243.373 -18544764.612 10 0 60356 39600.00000 0 19296760.929 2647912.411 -16456231.753 10 0 60356 40500.00000 0 20998187.001 3469822.232 -14047709.008 10 0 60356 41400.00000 0 22472067.451 4030425.122 -11366087.605 10 0 60356 42300.00000 0 23663452.266 4354760.538 -8463551.214 10 0 60356 43200.00000 0 24525660.097 4478134.638 -5396554.839 10 0 60356 44100.00000 0 25022215.524 4444367.837 -2224721.643 10 0 60356 45000.00000 0 25128375.880 4303685.985 990320.268 10 0 60356 45900.00000 0 24832183.942 4110345.681 4186137.986 10 0 60356 46800.00000 0 24135002.864 3920095.198 7300707.092 10 0 60356 47700.00000 0 23051511.534 3787579.190 10273614.220 10 0 60356 48600.00000 0 21609161.210 3763797.351 13047225.469 10 0 60356 49500.00000 0 19847116.775 3893724.612 15567798.217 10 0 60356 50400.00000 0 17814727.328 4214193.282 17786515.154 10 0 60356 51300.00000 0 15569590.228 4752126.349 19660421.273 10 0 60356 52200.00000 0 13175289.215 5523196.152 21153246.559 10 0 60356 53100.00000 0 10698900.465 6530964.824 22236099.450 10 0 60356 54000.00000 0 8208369.558 7766542.771 22888018.714 10 0 60356 54900.00000 0 5769867.360 9208780.010 23096373.950 10 0 60356 55800.00000 0 3445233.398 10824983.141 22857107.662 10 0 60356 56700.00000 0 1289611.503 12572129.124 22174814.602 10 0 60356 57600.00000 0 -650625.493 14398526.503 21062656.852 10 0 60356 58500.00000 0 -2339577.087 16245856.234 19542115.903 10 0 60356 59400.00000 0 -3753072.842 18051508.427 17642585.833 10 0 60356 60300.00000 0 -4879435.076 19751118.819 15400814.445 10 0 60356 61200.00000 0 -5719715.359 21281200.140 12860202.085 10 0 60356 62100.00000 0 -6287395.376 22581759.050 10069970.521 10 0 60356 63000.00000 0 -6607565.006 23598789.554 7084216.942 10 0 60356 63900.00000 0 -6715612.260 24286538.238 3960870.597 10 0 60356 64800.00000 0 -6655480.343 24609445.664 760571.716 10 0 60356 65700.00000 0 -6477565.563 24543681.664 -2454505.691 10 0 60356 66600.00000 0 -6236345.148 24078208.640 -5621864.177 10 0 60356 67500.00000 0 -5987835.875 23215327.015 -8679902.378 10 0 60356 68400.00000 0 -5786991.710 21970678.696 -11569119.322 10 0 60356 69300.00000 0 -5685151.591 20372707.065 -14233279.315 10 0 60356 70200.00000 0 -5727646.480 18461595.224 -16620513.905 10 0 60356 71100.00000 0 -5951668.191 16287726.313 -18684338.751 10 0 60356 72000.00000 0 -6384491.393 13909729.959 -20384564.900 10 0 60356 72900.00000 0 -7042125.176 11392196.450 -21688086.289 10 0 60356 73800.00000 0 -7928452.307 8803154.130 -22569527.877 10 0 60356 74700.00000 0 -9034893.546 6211415.504 -23011741.606 10 0 60356 75600.00000 0 -10340612.078 3683902.858 -23006140.616 10 0 60356 76500.00000 0 -11813250.229 1283064.897 -22552865.285 10 0 60356 77400.00000 0 -13410168.031 -935508.049 -21660778.048 10 0 60356 78300.00000 0 -15080131.972 -2925171.272 -20347287.279 10 0 60356 79200.00000 0 -16765383.228 -4649929.091 -18638003.872 10 0 60356 80100.00000 0 -18403998.525 -6085684.293 -16566237.413 10 0 60356 81000.00000 0 -19932444.430 -7220982.773 -14172341.987 10 0 60356 81900.00000 0 -21288217.662 -8057223.838 -11502924.643 10 0 60356 82800.00000 0 -22412460.258 -8608329.140 -8609932.259 10 0 60356 83700.00000 0 -23252439.564 -8899886.107 -5549635.053 10 0 60356 84600.00000 0 -23763788.707 -8967803.844 -2381526.957 10 0 60356 85500.00000 0 -23912413.371 -8856539.961 832835.146 99